User: anonymous   Login
Location: Theydon Bois
(51.6750°N, 0.1050°E)
Time: 00:40:39
(UTC+00:00)
Language:

HJ-1C - Orbit

View from above orbital plane
View from above orbital plane
View from above satellite
View from above satellite

Ground track
Ground track

The orbit data is extracted from the following two-line orbital elements,

1 38997U 12064A   18019.79512567 +.00001720 +00000-0 +46397-4 0  9993
2 38997 097.2420 053.2176 0009728 327.3642 119.8675 15.39134188290347
Epoch (UTC): 19 January 2018 19:04:58
Eccentricity: 0.0009728
inclination: 97.2420°
perigee height: 442 km
apogee height: 455 km
right ascension of ascending node: 53.2176°
argument of perigee: 327.3642°
revolutions per day: 15.39134188
mean anomaly at epoch: 119.8675°
orbit number at epoch: 29034

The dashed part of the orbit path shows where the satellite is in the earth's shadow,  

DLR